Location: Eschertshofen
(49.3064°N, 11.5756°E)
Time: 22:04:02
(UTC+00:00)

Terra - Pass Details

Date: 18 September 2020
Orbit: 701 x 703 km, 98.2° (Epoch: 30 October)

Event Time Altitude Azimuth Distance (km) Brightness Sun altitude
Exits shadow 21:57:48 20° 315° (NW) 1,621 4.2 -37.1°
Drops below altitude 10° 21:59:31 10° 329° (NNW) 2,183 5.1 -37.2°
Sets 22:01:59 0° 339° (NNW) 3,106 6.1 -37.3°
